Date String (YYYY-MM-DD hh:mm:ss) UTC,Instrument flags,Ambient pressure (hPa),Sample flow (lpm),Bypass flow (lpm),Sample temperature (°C),Ambient temperature (°C),ASC tube jacket temperature (°C),LED temperature (°C),Box temperature (°C),Sample RH (%),Span deviation,Mass concentration (μg/m³),Mass concentration (μg/m³),Mass concentration (μg/m³)
DateTimeUTC,F1_M11,P_M11,Q1_M11,Q2_M11,T1_M11,T2_M11,T3_M11,T4_M11,T5_M11,U1_M11,ZSPAN_M11,X0_M11,X2_M11,X1_M11
2022-05-23 16:00:00,,0825.2,5.01,0.00,28.5,27.5,00.0,37.4,30.3,22.7,0000.0,0000.05,0000.03,0000.01
2022-05-23 16:01:00,,0825.2,5.00,0.00,28.5,27.5,00.0,37.4,30.4,22.0,0000.0,0000.12,0000.04,0000.01
2022-05-23 16:02:00,,0825.2,5.00,0.00,28.5,27.5,00.0,37.4,30.4,22.0,0000.0,0000.15,0000.04,0000.01
2022-05-23 16:03:00,,0825.3,5.00,0.00,28.5,27.5,00.0,37.4,30.4,21.1,0000.0,0000.15,0000.04,0000.01
2022-05-23 16:04:00,,0825.3,4.99,0.00,28.5,27.5,00.0,37.4,30.4,21.0,0000.0,0000.15,0000.04,0000.01
2022-05-23 16:05:00,,0825.2,5.01,0.00,28.5,27.6,00.0,37.4,30.4,20.7,0000.0,0000.13,0000.03,0000.01
2022-05-23 16:06:00,,0825.2,5.01,0.00,28.5,27.6,00.0,37.4,30.4,20.9,0000.0,0000.16,0000.03,0000.01
2022-05-23 16:07:00,,0825.2,5.00,0.00,28.6,27.6,00.0,37.4,30.4,21.0,0000.0,0000.17,0000.04,0000.01
2022-05-23 16:08:00,,0825.2,5.01,0.00,28.6,27.6,00.0,37.4,30.4,20.9,0000.0,0000.17,0000.03,0000.01
2022-05-23 16:09:00,,0825.2,5.01,0.00,28.6,27.6,00.0,37.5,30.5,21.4,0000.0,0000.16,0000.03,0000.01
2022-05-23 16:10:00,,0825.2,5.00,0.00,28.6,27.7,00.0,37.5,30.5,20.8,0000.0,0000.16,0000.03,0000.00
2022-05-23 16:11:00,,0825.2,4.99,0.00,28.6,27.7,00.0,37.5,30.5,20.9,0000.0,0000.15,0000.03,0000.00
2022-05-23 16:12:00,,0825.2,5.01,0.00,28.6,27.7,00.0,37.5,30.5,20.7,0000.0,0000.09,0000.02,0000.00
2022-05-23 16:13:00,,0825.2,5.01,0.00,28.6,27.7,00.0,37.5,30.5,20.8,0000.0,0000.05,0000.01,0000.00
2022-05-23 16:14:00,,0825.2,5.00,0.00,28.6,27.7,00.0,37.5,30.5,21.1,0000.0,0000.05,0000.01,0000.00
2022-05-23 16:15:00,,0825.2,5.00,0.00,28.6,27.7,00.0,37.5,30.5,20.9,0000.0,0000.05,0000.01,0000.00
2022-05-23 16:16:00,,0825.2,4.99,0.00,28.6,27.7,00.0,37.5,30.4,20.8,0000.0,0000.09,0000.05,0000.03
2022-05-23 16:17:00,,0825.1,4.99,0.00,28.6,27.7,00.0,37.5,30.4,19.7,0000.0,0001.24,0000.53,0000.41
2022-05-23 16:18:00,,0825.0,5.00,0.00,28.6,27.6,00.0,37.5,30.4,20.2,0000.0,0002.48,0001.13,0000.91
2022-05-23 16:19:00,,0825.1,5.00,0.00,28.6,27.6,00.0,37.5,30.4,19.6,0000.0,0004.09,0001.73,0001.38
2022-05-23 16:20:00,,0825.1,5.00,0.00,28.5,27.6,00.0,37.5,30.4,19.3,0000.0,0005.31,0002.38,0001.86
2022-05-23 16:21:00,,0825.1,5.00,0.00,28.5,27.6,00.0,37.5,30.4,19.5,0000.0,0006.95,0003.00,0002.34
2022-05-23 16:22:00,,0825.1,5.00,0.00,28.5,27.6,00.0,37.5,30.4,19.3,0000.0,0007.74,0003.40,0002.82
2022-05-23 16:23:00,,0825.2,5.00,0.00,28.5,27.6,00.0,37.5,30.4,19.8,0000.0,0008.12,0003.68,0003.19
2022-05-23 16:24:00,,0825.2,5.01,0.00,28.6,27.6,00.0,37.5,30.4,20.7,0000.0,0008.61,0004.01,0003.46
2022-05-23 16:25:00,,0825.2,5.00,0.00,28.6,27.6,00.0,37.5,30.4,19.9,0000.0,0008.98,0004.31,0003.73
2022-05-23 16:26:00,,0825.3,5.00,0.00,28.6,27.6,00.0,37.5,30.4,20.2,0000.0,0009.33,0004.60,0003.98
2022-05-23 16:27:00,,0825.2,5.00,0.00,28.6,27.6,00.0,37.5,30.4,20.8,0000.0,0009.71,0004.90,0004.23
2022-05-23 16:28:00,,0825.2,5.00,0.00,28.6,27.6,00.0,37.5,30.4,19.7,0000.0,0009.67,0005.01,0004.31
2022-05-23 16:29:00,,0825.2,4.99,0.00,28.6,27.6,00.0,37.5,30.4,19.7,0000.0,0009.59,0005.05,0004.33
2022-05-23 16:30:00,,0825.2,4.99,0.00,28.6,27.6,00.0,37.5,30.4,19.5,0000.0,0009.38,0005.09,0004.33
2022-05-23 16:31:00,,0825.2,5.00,0.00,28.6,27.6,00.0,37.5,30.4,20.1,0000.0,0009.24,0005.08,0004.33
2022-05-23 16:32:00,,0825.2,5.01,0.00,28.6,27.6,00.0,37.5,30.4,20.1,0000.0,0008.78,0005.04,0004.31
2022-05-23 16:33:00,,0825.2,5.01,0.00,28.6,27.6,00.0,37.5,30.5,19.3,0000.0,0008.63,0005.01,0004.30
2022-05-23 16:34:00,,0825.2,4.98,0.00,28.6,27.7,00.0,37.5,30.5,19.8,0000.0,0008.83,0005.05,0004.31
2022-05-23 16:35:00,,0825.1,4.99,0.00,28.6,27.7,00.0,37.5,30.5,20.2,0000.0,0008.72,0005.01,0004.30
2022-05-23 16:36:00,,0825.1,5.00,0.00,28.6,27.7,00.0,37.5,30.5,19.8,0000.0,0008.85,0004.99,0004.29
2022-05-23 16:37:00,,0825.1,5.01,0.00,28.7,27.7,00.0,37.6,30.5,19.6,0000.0,0009.22,0005.00,0004.30
2022-05-23 16:38:00,,0825.1,5.00,0.00,28.7,27.8,00.0,37.6,30.5,19.6,0000.0,0009.28,0004.99,0004.31
2022-05-23 16:39:00,,0825.1,4.99,0.00,28.7,27.8,00.0,37.6,30.5,19.4,0000.0,0009.09,0004.91,0004.29
2022-05-23 16:40:00,,0825.1,4.98,0.00,28.7,27.8,00.0,37.6,30.6,19.6,0000.0,0008.97,0004.88,0004.27
2022-05-23 16:41:00,,0825.1,4.99,0.00,28.7,27.8,00.0,37.6,30.6,19.4,0000.0,0008.81,0004.87,0004.26
2022-05-23 16:42:00,,0825.1,5.00,0.00,28.7,27.8,00.0,37.6,30.6,19.0,0000.0,0008.71,0004.83,0004.25
2022-05-23 16:43:00,,0825.1,5.01,0.00,28.7,27.8,00.0,37.6,30.6,19.4,0000.0,0008.66,0004.83,0004.25
2022-05-23 16:44:00,,0825.1,5.00,0.00,28.7,27.8,00.0,37.6,30.6,19.0,0000.0,0008.63,0004.81,0004.25
2022-05-23 16:45:00,,0825.1,5.00,0.00,28.7,27.8,00.0,37.6,30.6,19.3,0000.0,0008.66,0004.77,0004.23
2022-05-23 16:46:00,,0825.1,5.00,0.00,28.8,27.9,00.0,37.6,30.6,19.7,0000.0,0008.72,0004.81,0004.25
2022-05-23 16:47:00,,0825.1,5.00,0.00,28.8,27.9,00.0,37.6,30.6,19.7,0000.0,0008.71,0004.88,0004.26
2022-05-23 16:48:00,,0825.1,5.00,0.00,28.8,27.9,00.0,37.6,30.6,19.6,0000.0,0008.43,0004.92,0004.28
2022-05-23 16:49:00,,0825.1,5.00,0.00,28.8,27.9,00.0,37.7,30.6,19.5,0000.0,0009.05,0004.95,0004.29
2022-05-23 16:50:00,,0825.1,5.01,0.00,28.8,27.9,00.0,37.7,30.6,19.8,0000.0,0009.34,0005.04,0004.31
2022-05-23 16:51:00,,0825.1,5.01,0.00,28.8,27.9,00.0,37.7,30.6,19.5,0000.0,0009.40,0005.08,0004.31
2022-05-23 16:52:00,,0825.1,5.00,0.00,28.8,27.9,00.0,37.7,30.7,19.6,0000.0,0009.40,0005.07,0004.33
2022-05-23 16:53:00,,0825.1,5.00,0.00,28.8,27.9,00.0,37.7,30.6,19.3,0000.0,0009.62,0005.12,0004.35
2022-05-23 16:54:00,,0825.1,5.01,0.00,28.8,27.8,00.0,37.7,30.6,19.1,0000.0,0010.46,0005.17,0004.37
2022-05-23 16:55:00,,0825.0,5.01,0.00,28.8,27.8,00.0,37.7,30.6,19.4,0000.0,0010.78,0005.21,0004.38
2022-05-23 16:56:00,,0825.0,5.00,0.00,28.8,27.9,00.0,37.7,30.6,20.2,0000.0,0010.97,0005.25,0004.41
2022-05-23 16:57:00,,0825.0,5.01,0.00,28.8,27.9,00.0,37.7,30.6,20.3,0000.0,0010.92,0005.25,0004.42
2022-05-23 16:58:00,,0825.0,5.00,0.00,28.8,27.9,00.0,37.7,30.6,20.5,0000.0,0010.95,0005.23,0004.42
2022-05-23 16:59:00,,0825.0,5.01,0.00,28.8,27.9,00.0,37.7,30.7,20.4,0000.0,0011.01,0005.24,0004.42
